Regional Weather Roundup
Issued by NWS

Home | Current Version | Previous Version | Text Only | Print | Product List | Glossary On
Versions: 1 2 3 4 5 6 7 8 9 10 11 12 13 14 15 16 17 18 19 20 21 22 23 24 25 26 27 28 29 30 31 32 33 34 35 36 37 38 39 40 41 42 43 44 45 46 47 48 49 50
000
ASUS45 KABQ 120901
RWRNM
NEW MEXICO REGIONAL WEATHER ROUNDUP
NATIONAL WEATHER SERVICE ALBUQUERQUE NM
200 AM MST TUE DEC 12 2017

NOTE: "FAIR" MEANS FEW OR NO CLOUDS BELOW 12,000 FEET AGL WITH NO
       SIGNIFICANT WEATHER OR OBSTRUCTIONS TO VISION.

      THIS PRODUCT IS RELEASED AS TWO VERSIONS.  ONE VERSION NEAR
      THE TOP OF THE HOUR CONTAINING PRELIMINARY DATA FROM ALBUQUERQUE
      AND OTHER STATIONS.  A FINAL VERSION WITH ADDITIONAL DATA IS
      ISSUED ABOUT 10 MINUTES AFTER THE HOUR.

NMZ501-503-504-510>518-121000-
NORTHWEST PLATEAU/NORTHCENTRAL MOUNTAINS

CITY           SKY/WX    TMP DP  RH WIND       PRES   REMARKS
FARMINGTON     FAIR      16   0  49 E8        30.49R WCI   5
LOS ALAMOS     FAIR      38   0  19 SW9G16    30.51S WCI  32
SANTA FE       FAIR      26   3  37 N3        30.50R
TAOS           FAIR      19   0  43 N6        30.54R WCI  11
ANGEL FIRE     FAIR       7   3  85 CALM      30.55R

$$
NMZ402-403-502-505>509-121000-
WESTCENTRAL MOUNTAINS/SOUTHWEST MOUNTAINS

CITY           SKY/WX    TMP DP  RH WIND       PRES   REMARKS
GALLUP         FAIR      12  -9  38 CALM      30.50R
GRANTS         FAIR      15  -9  33 NW8       30.52S WCI   4
SILVER CITY    FAIR      22   3  43 N3        30.41R

$$
NMZ407-409-411-412-121000-
SOUTHERN DESERTS

CITY           SKY/WX    TMP DP  RH WIND       PRES   REMARKS
DEMING         FAIR      30   5  34 NE7       30.40R WCI  23
LAS CRUCES     FAIR      26   7  43 NW3       30.41R
HOLLOMAN AFB   FAIR      25   7  45 SE7       30.42S WCI  17
ALAMOGORDO     FAIR      27   9  46 S7        30.41S WCI  19
T OR C         FAIR      33   1  25 NW8       30.42R WCI  26

$$
NMZ519>523-121000-
CENTRAL VALLEYS/CENTRAL HIGHLANDS

CITY           SKY/WX    TMP DP  RH WIND       PRES   REMARKS
ALBUQUERQUE    FAIR      34   3  27 NE9       30.48R WCI  27
MORIARTY ARPT  FAIR      19  -2  40 CALM      30.53S
CLINES CORNERS FAIR      30   3  31 E7        30.51S WCI  23
BELEN          FAIR      24  -1  33 W9        30.48S WCI  14
SOCORRO        NOT AVBL

$$
NMZ524>526-539-540-121000-
SOUTHCENTRAL MOUNTAINS

CITY           SKY/WX    TMP DP  RH WIND       PRES   REMARKS
RUIDOSO        FAIR      32   0  25 SW8       30.53R WCI  25

$$
NMZ527>531-121000-
NORTHEAST HIGHLANDS/NORTHEAST PLAINS

CITY           SKY/WX    TMP DP  RH WIND       PRES   REMARKS
LAS VEGAS      FAIR      31   3  30 NW5       30.51S WCI  26
RATON          FAIR      19   3  49 N6        30.48S WCI  11
CLAYTON        FAIR      26   8  46 NW9       30.46S WCI  17

$$
NMZ532>537-121000-
EASTCENTRAL PLAINS

CITY           SKY/WX    TMP DP  RH WIND       PRES   REMARKS
SANTA ROSA     FAIR      29  10  45 CALM      30.50R
TUCUMCARI      FAIR      29  10  45 NW3       30.48R
CANNON AFB     CLEAR     30  11  46 N8        30.48R WCI  22
CLOVIS AIRPORT FAIR      28  13  53 N10       30.47R WCI  19

$$
NMZ028-029-538-121000-
SOUTHEAST PLAINS

CITY           SKY/WX    TMP DP  RH WIND       PRES   REMARKS
ROSWELL        FAIR      35   8  32 W7        30.46R WCI  29
ARTESIA        FAIR      36   7  30 NW12      30.46R WCI  27
CARLSBAD       FAIR      33  19  56 NW12      30.44R WCI  24
HOBBS          FAIR      34  10  37 NE12      30.44R WCI  25


$$




USA.gov is the U.S. government's official web portal to all federal, state and local government web resources and services.